Location: Unspecified
(40.4667°N, 0.0000°E)
Time: 23:11:38
(UTC+00:00)

Tiangong 2 - Visible Passes

Search period start: 20 May 2019 00:00
Search period end: 30 May 2019 00:00
Orbit: 379 x 387 km, 42.8° (Epoch: 20 May)

Date Brightness Start Highest point End Pass type
(mag) Time Alt. Az. Time Alt. Az. Time Alt. Az.
20 May 0.9 20:56:23 10° WSW 20:59:30 78° SSE 21:00:27 41° E visible
21 May 1.3 19:56:31 10° SW 19:59:33 48° SSE 20:02:34 10° E visible
21 May 1.6 21:33:09 10° W 21:36:04 57° NNW 21:36:04 57° NNW visible
22 May 1.2 20:33:03 10° W 20:36:10 74° NNW 20:39:08 11° ENE visible
22 May 3.3 22:09:58 10° WNW 22:11:20 23° WNW 22:11:20 23° WNW visible
23 May 1.7 21:09:53 10° W 21:12:57 52° N 21:14:11 30° ENE visible
24 May 1.6 20:09:45 10° W 20:12:51 59° N 20:15:57 10° ENE visible
24 May 2.0 21:46:38 10° WNW 21:49:04 46° NW 21:49:04 46° NW visible
25 May 1.7 20:46:34 10° WNW 20:49:39 54° N 20:51:41 19° ENE visible
25 May 3.9 22:23:18 10° WNW 22:23:52 14° WNW 22:23:52 14° WNW visible
26 May 0.9 21:23:15 10° WNW 21:26:23 84° NNE 21:26:25 84° NE visible
27 May 1.4 20:23:11 10° WNW 20:26:17 63° N 20:28:57 13° E visible
27 May 3.3 21:59:59 10° W 22:01:07 19° W 22:01:07 19° W visible
28 May 1.0 20:59:50 10° WNW 21:02:57 66° SSW 21:03:38 47° SE visible
29 May 1.1 19:59:45 10° WNW 20:02:53 83° NNE 20:06:01 10° ESE visible
29 May 3.1 21:36:48 10° W 21:38:20 19° WSW 21:38:20 19° WSW visible
